Location: Pedholt
(56.0260°N, 10.2097°E)
Time: 05:35:11
(UTC+00:00)

Vanguard 3 - Pass Details

Date: 07 August 2021
Orbit: 510 x 3260 km, 33.3° (Epoch: 19 September)

Event Time Altitude Azimuth Distance (km) Brightness Sun altitude
Rises 21:36:42 0° 266° (W) 6,565 12.1 -14.3°
Reaches altitude 10° 21:43:42 10° 248° (WSW) 5,924 11.6 -14.7°
Maximum altitude 21:52:36 16° 219° (SW) 5,690 11.2 -15.3°
Drops below altitude 10° 22:01:52 10° 191° (S) 6,144 11.1 -15.7°
Enters shadow 22:02:38 - 189° (S) 6,208 11.1 -15.8°
